Theta_e
325 322 319 318 318 318 317 316 315 314 313 313 314 313 314 314 314 314 314 320 323 326 327 329 330 331 331 332 332 332 332 332 332 333 333 333 333 333 333 334 334 336 336
323 320 318 317 317 317 316 315 314 313 312 312 312 312 313 313 313 313 313 312 319 321 323 324 326 326 328 329 329 330 331 331 330 330 330 331 331 331 332 333 333 334 335
322 319 318 316 316 316 315 314 312 312 311 311 311 311 311 312 313 312 312 312 312 317 319 321 323 324 324 325 327 328 328 328 328 329 329 329 330 330 331 332 332 332 333
322 320 317 317 316 316 314 312 311 310 310 310 309 311 310 311 311 312 311 311 311 313 313 319 320 321 322 323 324 325 326 327 327 327 326 326 327 329 329 329 330 331 331
321 319 317 316 315 313 312 311 310 309 309 310 310 311 310 309 310 311 310 310 310 311 311 314 317 318 320 321 323 324 324 325 325 326 325 325 326 326 327 328 328 329 330
320 318 317 314 313 312 311 310 310 310 309 309 309 309 310 308 309 310 310 310 310 311 311 311 311 312 317 320 320 321 324 324 325 326 327 326 327 327 327 328 328 329 329
319 317 315 313 313 311 310 310 309 309 309 308 306 308 307 308 308 308 310 311 310 310 310 311 311 311 312 316 316 319 323 325 325 325 325 326 327 327 327 328 328 328 328
317 315 314 312 312 310 309 308 308 307 308 308 307 305 302 304 307 309 310 310 310 309 309 310 310 311 312 311 313 318 321 323 324 325 325 322 323 327 327 327 327 328 327
314 314 313 312 311 309 308 307 307 307 305 307 308 307 302 299 303 308 308 309 309 308 309 310 310 310 311 311 312 314 318 320 323 324 324 320 321 324 327 327 326 327 327
314 313 312 311 310 308 308 307 308 307 306 305 306 309 309 308 301 299 307 307 309 308 310 309 308 308 308 308 311 315 317 320 321 323 322 320 320 323 326 326 327 327 327
309 309 308 307 307 306 306 306 306 305 305 305 305 306 306 305 305 301 298 301 305 307 308 308 306 306 306 307 307 312 316 318 320 320 318 318 318 321 324 325 326 326 327
304 305 306 305 304 304 304 305 305 305 305 306 306 305 303 301 301 301 299 300 300 304 307 307 305 305 305 305 307 311 314 316 317 318 317 316 316 319 322 324 325 326 328
302 304 304 304 304 304 305 304 304 305 304 302 301 300 301 300 300 300 299 298 300 303 303 303 304 304 305 304 305 310 313 313 314 314 315 314 315 316 320 322 325 325 326
303 304 304 304 305 304 305 303 302 301 300 298 297 298 298 298 299 299 299 299 296 299 298 301 302 303 303 302 307 310 309 311 312 313 313 312 313 316 318 321 322 321 322
305 304 304 304 304 303 302 301 298 298 298 297 297 298 298 299 300 300 301 301 299 295 295 300 299 303 302 302 304 307 307 309 311 310 310 311 312 315 317 319 319 319 320
304 303 304 304 303 303 302 299 297 298 297 297 297 297 298 299 300 301 301 303 302 298 294 298 299 300 301 301 304 305 306 308 307 308 309 310 313 314 315 316 316 317 318
304 303 303 304 304 302 302 299 298 298 298 297 298 298 298 299 300 300 300 299 299 300 297 299 299 300 299 300 301 304 305 304 305 306 308 309 312 313 313 315 315 315 314
303 303 303 304 304 303 302 300 299 298 297 297 298 297 297 299 299 301 301 299 299 300 298 295 298 297 299 301 301 301 301 302 303 304 307 308 311 312 312 314 313 312 312
303 302 303 303 304 304 303 302 300 300 300 298 298 297 297 298 297 299 300 299 299 300 299 297 296 298 298 298 298 300 299 299 301 304 305 307 310 310 312 313 312 311 310
302 303 303 303 304 304 304 303 303 302 301 300 299 298 297 297 297 299 299 299 299 298 297 295 295 295 297 298 296 295 295 298 298 302 305 307 308 310 313 313 313 313 310
304 303 303 304 303 303 303 303 302 301 299 298 298 297 298 299 301 300 300 298 298 297 295 293 293 294 294 295 293 295 294 297 298 304 305 305 306 308 311 313 313 312 309
302 301 302 302 301 301 301 302 304 301 298 296 295 296 296 298 297 299 299 300 299 296 294 294 293 293 293 295 294 293 293 293 293 306 303 303 308 309 311 311 311 309 308
300 299 300 300 300 301 300 299 300 297 296 295 295 295 294 296 297 296 298 298 298 298 297 297 293 294 294 294 294 293 294 294 294 300 303 302 306 306 313 310 309 308 306
299 299 299 300 300 300 299 297 299 297 295 295 295 294 294 295 296 297 295 295 295 296 296 296 297 297 297 297 297 296 297 295 298 304 304 299 305 305 310 309 308 307 306
299 298 299 300 299 299 297 297 297 296 295 294 294 295 295 296 296 296 295 293 293 294 296 296 297 298 297 297 297 297 294 293 293 301 303 301 304 303 308 308 309 308 306
298 298 300 300 298 299 296 296 297 296 294 293 295 296 296 297 296 295 294 293 291 292 293 294 296 297 297 296 296 298 296 292 293 297 303 300 301 303 302 307 308 309 310
Wind_Speed
4 4 3 3 4 3 4 4 4 4 4 5 5 5 6 6 6 4 3 12 12 11 12 13 13 14 14 13 12 12 12 11 11 12 14 15 16 17 19 21 20 20 21
4 4 3 4 4 3 3 3 3 3 3 4 6 7 6 6 6 5 4 5 10 10 13 14 13 14 15 15 15 15 14 14 14 15 16 15 16 16 19 21 21 19 20
5 5 4 3 3 2 4 3 3 3 4 4 5 6 5 6 4 4 4 4 5 9 13 14 14 13 13 15 17 17 18 17 16 15 15 17 17 18 18 18 19 20 21
5 4 3 3 2 3 3 3 2 2 3 4 5 6 5 5 4 3 3 3 3 4 7 13 13 13 13 13 14 15 15 15 15 16 18 18 19 18 19 19 19 20 20
5 4 3 3 3 3 2 2 2 2 2 5 6 6 5 4 4 2 4 4 4 5 4 10 14 13 13 13 13 13 13 13 14 14 16 17 19 19 19 20 21 19 20
4 4 3 3 3 2 3 2 3 2 2 3 7 6 6 3 3 4 4 4 5 6 5 7 7 7 13 14 14 13 13 14 15 16 17 16 15 17 17 18 19 20 21
3 3 3 3 2 3 1 2 2 3 2 2 3 4 4 4 4 3 5 5 6 6 8 7 5 5 7 15 15 13 14 13 13 15 14 16 19 20 18 20 20 19 19
2 3 3 2 2 1 3 3 2 2 2 2 2 2 4 4 2 10 6 5 7 5 7 8 9 9 7 7 11 14 13 14 16 17 14 17 21 19 19 18 18 20 19
1 3 3 1 1 2 1 1 2 1 2 2 3 2 3 3 9 2 8 5 6 6 6 7 9 9 9 8 11 11 13 14 15 17 15 18 20 21 19 20 19 17 21
4 4 3 3 1 1 2 2 2 1 0 3 3 1 4 4 4 9 0 5 7 8 10 6 7 8 8 8 13 16 16 15 16 17 16 20 20 21 21 19 19 19 19
5 4 4 3 3 2 3 3 3 4 1 2 1 2 2 2 4 6 13 8 6 7 8 7 7 6 8 8 9 11 19 16 18 16 16 20 22 22 21 22 19 19 20
2 4 3 3 2 2 3 3 4 5 4 3 4 4 3 3 4 4 6 11 14 9 5 7 6 6 6 7 12 17 18 17 17 15 17 20 21 22 23 22 21 22 22
2 3 3 3 3 4 5 4 4 3 3 3 4 4 3 5 4 5 6 10 9 7 5 5 6 5 6 7 9 17 17 17 18 18 18 19 20 21 21 22 21 21 24
2 1 4 5 5 5 3 3 2 2 3 3 5 4 4 5 5 5 4 8 11 10 3 8 3 5 5 6 11 19 11 18 19 19 19 20 20 20 20 21 20 20 21
2 6 4 4 3 1 2 3 2 2 3 3 4 5 4 5 5 6 6 7 6 9 8 7 3 4 7 8 10 10 11 17 20 20 20 20 20 20 19 19 18 20 21
3 3 3 3 3 4 3 3 3 3 3 4 4 5 5 4 7 6 6 6 5 7 9 3 4 7 8 9 11 11 11 18 19 20 21 20 19 18 18 17 18 20 20
3 3 3 4 4 5 4 4 5 5 5 6 5 5 8 7 6 7 7 7 7 6 9 6 7 8 9 10 11 10 11 11 10 19 22 21 19 16 17 16 17 19 20
4 4 4 5 5 6 6 6 8 6 6 7 7 6 9 8 10 10 8 8 7 8 5 11 8 7 10 10 9 12 10 10 10 17 21 21 18 17 16 15 15 17 19
5 5 4 5 6 7 7 8 8 9 9 8 5 7 9 9 10 9 9 7 7 8 7 7 9 8 6 9 11 10 11 12 10 18 18 16 16 17 14 15 16 17 17
6 6 5 6 7 8 8 8 9 10 9 7 5 6 8 8 10 10 8 7 7 7 6 6 7 7 8 9 8 8 11 10 11 11 12 12 16 15 13 14 15 19 19
5 5 5 6 6 6 6 7 8 8 7 7 6 7 7 10 14 11 6 7 9 8 6 7 8 7 7 8 7 8 9 10 11 8 8 8 6 6 6 9 12 20 20
4 4 5 5 7 6 9 10 6 4 4 6 8 8 8 12 10 14 14 16 15 10 10 7 8 6 8 6 7 8 7 6 6 4 8 10 6 5 4 5 15 19 20
4 5 5 5 6 5 5 1 4 3 6 7 8 9 9 7 10 8 11 17 17 16 13 9 8 9 10 10 8 10 8 8 8 10 6 7 4 6 5 6 14 17 20
4 5 6 5 5 4 4 3 5 4 6 8 8 9 9 10 7 8 10 11 11 9 9 7 9 10 10 10 8 9 9 9 10 8 4 3 3 5 5 4 12 16 18
4 5 5 7 6 5 7 5 4 4 7 9 9 8 9 9 8 8 10 11 11 9 9 13 14 13 12 12 8 7 5 6 5 4 1 2 3 4 3 3 6 14 15
6 6 8 5 5 6 6 8 6 4 7 6 9 8 11 9 9 10 9 8 10 9 10 11 11 9 7 7 10 6 5 5 3 5 1 5 3 3 4 2 4 7 8
Wind_Direction
116 104 81 70 65 58 59 56 48 32 13 354 354 352 345 340 343 337 344 349 347 345 346 345 335 331 327 320 313 300 289 288 290 286 280 277 275 273 274 269 259 264 262
103 96 88 72 65 69 83 73 45 30 13 351 350 350 342 338 332 340 344 340 348 1 356 342 339 329 317 309 305 301 297 292 288 287 286 290 283 280 281 271 267 265 263
113 109 91 96 108 95 76 61 37 33 11 339 339 339 340 332 328 336 343 345 342 347 358 351 339 335 325 309 297 292 289 285 291 292 288 284 279 275 270 274 272 271 271
104 103 111 106 96 82 70 53 24 12 353 337 333 331 330 313 306 325 342 340 340 343 341 345 343 339 330 319 300 292 296 296 294 291 285 288 284 285 279 275 275 279 272
99 118 117 113 86 76 61 33 22 27 340 331 324 321 306 296 278 277 332 315 317 325 322 327 338 337 333 330 320 309 300 294 283 283 270 272 278 277 281 281 277 268 272
113 106 108 98 104 101 48 20 17 347 303 308 303 303 295 288 261 236 315 302 309 313 320 318 324 322 330 331 331 317 301 291 289 291 289 275 291 288 288 289 286 272 269
104 117 105 102 98 71 76 38 11 344 301 290 283 306 311 295 287 267 289 300 304 315 321 325 323 317 316 322 322 315 307 303 308 306 310 317 300 289 280 280 281 276 270
68 107 120 102 83 77 26 22 20 303 275 313 342 334 333 328 351 316 306 287 284 313 314 324 319 313 309 313 309 320 316 308 310 306 318 331 320 305 293 285 280 272 269
60 89 90 88 71 52 334 298 273 277 297 306 20 322 329 309 320 17 302 291 293 301 300 308 314 320 318 315 311 305 308 308 304 304 317 327 318 308 300 290 284 280 268
51 74 70 39 23 261 280 292 293 277 151 322 336 297 270 302 315 313 262 308 300 316 311 295 301 307 317 318 317 308 303 305 310 316 323 324 323 315 304 301 291 286 273
58 57 42 31 12 336 291 294 328 349 21 291 272 305 301 285 267 259 300 305 289 276 284 281 286 296 308 308 316 303 314 314 314 317 325 322 319 316 303 298 295 291 286
39 34 1 21 323 309 339 339 354 350 333 308 309 308 279 277 287 284 288 302 301 294 273 277 268 280 294 305 314 315 314 317 325 318 318 315 318 312 304 299 293 288 291
18 345 13 6 352 0 6 11 14 14 10 349 338 311 289 276 278 279 277 290 291 301 284 260 262 272 286 311 310 317 321 324 327 318 308 315 314 309 301 294 297 302 298
229 293 29 14 18 24 36 39 23 351 347 323 312 299 286 283 283 269 277 291 295 293 239 267 266 269 284 306 316 325 320 322 319 319 321 313 307 307 300 297 298 302 304
7 37 17 359 344 328 331 350 336 323 328 320 311 306 303 292 287 283 274 273 281 302 301 290 282 273 312 314 314 322 320 315 317 318 312 310 306 307 303 300 299 296 295
25 4 333 318 281 277 286 319 299 298 312 306 299 304 297 289 298 291 288 288 283 287 292 284 286 300 308 314 315 323 313 316 310 312 310 309 303 304 307 302 303 300 297
290 286 286 294 282 275 277 281 274 273 273 285 287 289 297 296 289 291 289 288 288 282 285 296 292 297 297 296 311 317 306 306 307 307 309 307 303 303 305 307 309 308 306
282 273 278 285 282 266 267 263 271 273 262 273 277 300 301 312 303 298 291 291 287 278 276 292 298 295 297 301 306 310 307 304 301 305 303 307 303 306 302 301 298 300 299
274 282 271 276 282 277 273 269 264 268 266 261 278 298 303 308 309 303 296 291 297 284 272 279 294 298 297 306 318 308 310 306 300 305 305 299 302 305 301 299 293 299 307
271 285 277 272 266 276 280 282 279 273 273 270 272 296 301 306 302 306 309 313 314 313 285 279 290 302 303 308 299 311 315 318 313 311 301 289 312 299 298 297 304 327 325
276 279 284 288 286 290 285 288 292 290 287 295 299 300 300 300 312 313 313 313 310 306 305 300 295 298 298 307 308 315 303 313 316 293 305 312 300 300 288 308 322 332 334
288 290 295 292 300 297 298 310 311 322 320 310 308 305 297 299 292 303 308 308 306 306 305 304 300 299 305 305 314 310 305 310 323 296 327 311 309 290 294 315 323 334 343
288 293 292 286 283 285 300 45 6 345 324 313 305 306 300 292 294 299 303 308 296 296 301 302 303 305 305 305 304 303 309 314 298 291 303 299 322 315 321 319 329 342 349
291 287 286 279 273 259 255 284 343 337 314 304 299 295 282 286 273 312 310 304 296 291 299 299 296 294 297 299 289 285 299 299 294 277 250 290 321 299 316 311 334 346 352
277 275 270 285 249 268 269 274 338 312 303 300 295 286 279 290 288 301 310 302 300 295 308 307 299 291 287 295 299 302 298 314 316 316 275 291 303 302 303 315 343 350 349
282 295 294 269 256 277 281 279 273 295 291 293 298 290 286 290 289 304 300 295 299 310 317 315 314 309 304 290 304 288 283 286 296 302 46 335 314 318 319 327 338 358 352